Location: Melita
(38.4566°N, 122.6369°W)
Time: 09:43:26
(UTC+00:00)

Cosmos 2344 - Pass Details

Date: 24 January 2020
Orbit: 1255 x 2987 km, 63.3° (Epoch: 18 February)

Event Time Altitude Azimuth Distance (km) Brightness Sun altitude
Exits shadow 13:40:31 28° 301° (WNW) 2,200 4.3 -19.9°
Maximum altitude 13:42:05 30° 322° (NW) 2,141 4.4 -19.6°
Drops below altitude 10° 13:49:05 10° 21° (NNE) 3,533 6.0 -18.2°
Sets 13:52:47 0° 32° (NNE) 4,704 6.8 -17.5°
